Regional Weather Roundup
Issued by NWS

Home | Current Version | Previous Version | Text Only | Print | Product List | Glossary On
Versions: 1 2 3 4 5 6 7 8 9 10 11 12 13 14 15 16 17 18 19 20 21 22 23 24 25 26 27
000
ASUS45 KBOI 231910
RWRID

IDAHO REGIONAL WEATHER ROUNDUP
NATIONAL WEATHER SERVICE BOISE ID
1200 PM MST FRI FEB 23 2018

NOTE: "FAIR" INDICATES FEW OR NO CLOUDS BELOW 12000 FEET
WITH NO SIGNIFICANT WEATHER AND/OR OBSTRUCTIONS TO VISIBILITY

IDZ012-014-232000-
SOUTHWEST IDAHO


CITY           SKY/WX    TMP DP  RH WIND       PRES   REMARKS
BOISE          SUNNY     24  12  60 NW13      30.30R WCI  12
CALDWELL       SUNNY     28  12  51 W13G21    30.34S WCI  17
MOUNTAIN HOME    N/A     26  11  53 NW21G26   30.26S WCI  12
$$

IDZ016-017-232000-
SOUTHCENTRAL IDAHO


CITY           SKY/WX    TMP DP  RH WIND       PRES   REMARKS
BURLEY         FLURRIES  17  11  77 W14G22    30.18R WCI   3
JEROME         CLOUDY    20  13  74 W16       30.20R WCI   6
TWIN FALLS     PTSUNNY   20  14  77 W18       30.19S WCI   5
$$

IDZ019>023-232000-
SOUTHEAST IDAHO


CITY           SKY/WX    TMP DP  RH WIND       PRES   REMARKS
IDAHO FALLS    PTSUNNY   19  11  70 SW8       30.10S WCI   9
POCATELLO      LGT SNOW  17  12  80 SW17      30.15R WCI   1
REXBURG        PTSUNNY   19  13  77 SW8       30.07S WCI   9
$$

IDZ006-010-011-018-031-032-232000-
CENTRAL IDAHO MOUNTAINS


CITY           SKY/WX    TMP DP  RH WIND       PRES   REMARKS
MCCALL         SUNNY     11   6  81 S6        30.12S WCI   1
HAILEY         MOSUNNY   19   7  58 CALM      30.08S
STANLEY          N/A      2  -4  76 CALM      30.05S
SALMON         MOSUNNY   22   9  57 NE6       30.17F WCI  14
CHALLIS        SUNNY     22   4  46 SE6       30.09F WCI  14
$$

IDZ002-004-006-007-026-232000-
NORTHERN IDAHO


CITY           SKY/WX    TMP DP  RH WIND       PRES   REMARKS
LEWISTON       SUNNY     32  15  49 SE12      30.35F WCI  23
LOWELL           N/A     30  20  66 CALM      30.39F
COEUR D`ALENE  CLOUDY    25  14  63 W8        30.28F WCI  16
MULLAN PASS    LGT SNOW   9   5  84 SW9       29.99F FOG     WCI  -4
$$




USA.gov is the U.S. government's official web portal to all federal, state and local government web resources and services.